This is the latest recevied weather packets stored in our database for station/object F6DEV-13. If no packets are shown the sender has not sent any weather packets the latest 10 day(s).
| Time | Temp. | Humidity | Pressure | Rain* | Wind** | Luminosity | Snow |
|---|---|---|---|---|---|---|---|
| 1777559796 | 20° C | 78% | 1015 hPa | 0 mm | - | - | - |
| 1777559496 | 19.44° C | 78% | 1015 hPa | 0 mm | - | - | - |
| 1777559196 | 18.89° C | 81% | 1015 hPa | 0 mm | - | - | - |
| 1777558896 | 18.33° C | 81% | 1015 hPa | 0 mm | - | - | - |
| 1777558596 | 18.33° C | 80% | 1015 hPa | 0 mm | - | - | - |
| 1777558296 | 17.78° C | 79% | 1015 hPa | 0 mm | - | - | - |
| 1777557996 | 17.78° C | 76% | 1015 hPa | 0 mm | - | - | - |
| 1777557696 | 17.78° C | 76% | 1015 hPa | 0 mm | - | - | - |
| 1777557396 | 17.78° C | 74% | 1015 hPa | 0 mm | - | - | - |
| 1777557096 | 18.33° C | 72% | 1015 hPa | 0 mm | - | - | - |
| 1777556796 | 18.89° C | 71% | 1015 hPa | 0 mm | - | - | - |
| 1777556538 | 18.89° C | 72% | 1015 hPa | 0 mm | - | - | - |
| 1777556496 | 18.89° C | 72% | 1015 hPa | 0 mm | - | - | - |
| 1777556196 | 18.89° C | 74% | 1015 hPa | 0 mm | - | - | - |
| 1777555896 | 18.89° C | 77% | 1015 hPa | 0 mm | - | - | - |
| 1777555630 | 18.33° C | 77% | 1015 hPa | 0 mm | - | - | - |
| 1777555596 | 18.33° C | 77% | 1015 hPa | 0 mm | - | - | - |
| 1777555296 | 18.33° C | 78% | 1015 hPa | 0 mm | - | - | - |
| 1777555031 | 18.33° C | 78% | 1015 hPa | 0 mm | - | - | - |
| 1777554996 | 18.33° C | 78% | 1015 hPa | 0 mm | - | - | - |
| 1777554696 | 18.33° C | 78% | 1015 hPa | 0 mm | - | - | - |
| 1777554432 | 18.33° C | 78% | 1015 hPa | 0 mm | - | - | - |
| 1777554396 | 18.33° C | 78% | 1015 hPa | 0 mm | - | - | - |
| 1777554066 | 17.78° C | 79% | 1015 hPa | 0 mm | - | - | - |
| 1777553766 | 17.22° C | 78% | 1015 hPa | 0 mm | - | - | - |
* Rain latest hour (hover to see other rain measurements)
** Current wind speed in m/s (hover to see current wind gust speed)